metlocid,date_time,avg_surfchange_cm,std_surfchange_cm,min_surfchange_cm,max_surfchange_cm,n_surfchange_cm,n_comments
VAAM,1/1/04,0.425235413,0.117375753,-0.2,0.7,531,0
VAAM,2/1/04,1.284626439,2.318209093,-0.1,11.1,2784,0
VAAM,3/1/04,4.275134451,0.936684656,1.5,7.7,2976,0
VAAM,4/1/04,2.197083319,0.236343205,1.1,3.2,2880,0
VAAM,5/1/04,1.5141129,0.530991536,0.4,2.7,2976,0
VAAM,6/1/04,0.226944444,0.6731049,-2,2.1,2880,0
VAAM,7/1/04,-0.428360218,0.425050231,-1.2,0.5,2976,0
VAAM,8/1/04,-0.206720434,0.282572575,-1.1,0.8,2976,0
VAAM,9/1/04,2.144166666,1.900320983,0.3,6.9,2880,0
VAAM,10/1/04,4.237365576,0.539954827,3.3,5.3,2976,0
VAAM,11/1/04,0.983888895,0.879066973,-0.2,3.7,2880,0
VAAM,12/1/04,-0.102859066,0.281904754,-1.3,0.6,2973,3
VAAM,1/1/05,0.092338711,0.123948111,-0.2,0.5,2976,0
VAAM,2/1/05,0.838244046,1.555248327,-0.3,4,2688,0
VAAM,3/1/05,2.854704287,0.510756288,1.8,3.9,2976,0
VAAM,4/1/05,2.636388882,1.335608778,0.3,5.7,2880,0
VAAM,5/1/05,0.917069896,1.210982366,-1,5.1,2976,0
VAAM,6/1/05,1.843750012,2.739182704,-2.3,8.3,2880,0
VAAM,7/1/05,-0.588306451,0.532340022,-1.5,3,2976,0
VAAM,8/1/05,-0.852284949,0.518868992,-2.2,2.5,2976,0
VAAM,9/1/05,-0.592916669,0.17904798,-1.2,-0.3,2880,0
VAAM,10/1/05,-0.485618286,0.137179833,-1,-0.1,2976,0
VAAM,11/1/05,-0.513888893,0.180774876,-1,0.1,2880,0
VAAM,12/1/05,6.813172413,21.51902727,-2.5,64.8,2976,348
VAAM,1/1/06,36.77502438,32.7111538,-2.1,64.8,1105,2508
VAAM,2/1/06,,,,,0,2688
VAAM,3/1/06,,,,,0,2976
VAAM,4/1/06,,,,,0,2880
VAAM,5/1/06,,,,,0,2976
VAAM,6/1/06,,,,,0,2880
VAAM,7/1/06,,,,,0,2976
VAAM,8/1/06,,,,,0,2976
VAAM,9/1/06,,,,,0,2880
VAAM,10/1/06,,,,,0,2976
VAAM,11/1/06,,,,,0,2880
VAAM,12/1/06,,,,,0,2976
VAAM,1/1/07,,,,,0,2976
VAAM,2/1/07,,,,,0,2688
VAAM,3/1/07,,,,,0,2976
VAAM,4/1/07,,,,,0,2880
VAAM,5/1/07,,,,,0,2976
VAAM,6/1/07,,,,,0,2880
VAAM,7/1/07,,,,,0,2976
VAAM,8/1/07,,,,,0,2976
VAAM,9/1/07,,,,,0,2880
VAAM,10/1/07,,,,,0,2976
VAAM,11/1/07,,,,,0,2880
VAAM,12/1/07,-0.534545464,0.11455502,-0.8,0,2255,721
VAAM,1/1/08,-0.551075278,0.111576268,-0.8,-0.1,2976,0
VAAM,2/1/08,-0.600574721,0.093939756,-0.9,-0.2,2784,0
VAAM,3/1/08,0.02943548,0.766478672,-0.9,1.6,2976,0
VAAM,4/1/08,-0.570000003,0.19422721,-1.2,0.1,2880,0
VAAM,5/1/08,-0.804166664,0.104081954,-1.2,-0.4,2976,0
VAAM,6/1/08,-0.802222217,0.115709116,-1.3,-0.4,2880,0
VAAM,7/1/08,-0.68776882,0.315554621,-1.2,0.5,2976,0
VAAM,8/1/08,-0.96075269,0.277210548,-1.7,-0.2,2976,0
VAAM,9/1/08,-0.804444441,0.113706553,-1.3,-0.2,2880,0
VAAM,10/1/08,2.516532278,2.667170275,-1.3,5.2,2976,0
VAAM,11/1/08,0.853055552,1.757541499,-0.7,4.3,2880,0
VAAM,12/1/08,-0.565433767,0.140354878,-1,-0.1,2974,0
VAAM,1/1/09,-0.470161296,0.128272717,-0.8,0,2976,0
VAAM,2/1/09,0.965922611,1.835833875,-0.8,5.2,2688,0
VAAM,3/1/09,3.422715045,0.558757469,2.4,4.6,2976,0
VAAM,4/1/09,2.180555558,0.372458913,1.2,3,2880,0
VAAM,5/1/09,1.411693544,0.250171752,0.7,2,2976,0
VAAM,6/1/09,0.325555558,0.376026608,-0.8,1.1,2880,0
VAAM,7/1/09,-0.733870968,0.161532369,-1.2,-0.2,2976,0
VAAM,8/1/09,-0.454301077,0.541577201,-1.1,3,2976,0
VAAM,9/1/09,-0.893194446,0.170146552,-1.4,-0.4,2880,0
VAAM,10/1/09,-0.625000004,0.163223822,-1.2,-0.1,2976,0
VAAM,11/1/09,22.17873526,31.18882621,-0.8,65.7,2878,2
VAAM,12/1/09,65.09395068,0.118152066,64.7,65.4,2976,0
VAAM,1/1/10,65.10134327,0.119486663,64.7,65.3,2976,0
VAAM,2/1/10,64.10267838,1.313407333,61.9,65.5,2688,0
VAAM,3/1/10,63.13776877,0.247742457,62.6,63.7,2976,0
VAAM,4/1/10,63.44736088,0.958285779,61.5,66.4,2880,0
VAAM,5/1/10,62.2896505,0.391798759,61.5,63.4,2976,0
VAAM,6/1/10,63.31888892,0.384165689,62.4,65.1,2880,0
VAAM,7/1/10,63.80161292,0.46687688,62.9,65.5,2976,0
VAAM,8/1/10,64.77580657,0.525062371,63.6,65.8,2976,0
VAAM,9/1/10,65.76638887,0.252109117,65.3,66.6,2880,0
VAAM,10/1/10,66.56220469,1.176124068,64.5,69.6,2032,944
VAAM,11/1/10,67.3612149,0.461819412,65.8,68.5,856,1880
VAAM,1/1/12,60.72935878,0.142942903,60,61.2,2449,0
VAAM,2/1/12,60.79166679,0.123033411,60.1,61.1,2784,0
VAAM,3/1/12,60.91102232,0.068693571,60.8,61.2,2976,0
VAAM,4/1/12,61.02111136,0.158049107,60.7,61.6,2880,0
VAAM,5/1/12,59.18642466,1.154133356,56.1,61.2,2976,0
VAAM,6/1/12,60.1693059,0.805462278,57.9,61.3,2880,0
VAAM,7/1/12,60.88360232,0.303436615,59.1,61.6,2976,0
VAAM,8/1/12,59.869878,1.019558636,56.4,61.2,2948,28
VAAM,9/1/12,59.02666699,0.297886398,58.6,59.8,2880,0
VAAM,10/1/12,57.48763453,0.711987536,56.2,59.8,2976,0
VAAM,11/1/12,60.19708332,0.983549278,57.6,61.1,2880,0
VAAM,12/1/12,60.70967732,0.093415767,60.2,61,2976,0
VAAM,1/1/13,60.70577942,0.171303086,59.4,61.1,2976,0
VAAM,2/1/13,60.76562493,0.096349136,60.4,61,2688,0
VAAM,3/1/13,60.82903234,0.131253455,60.4,61.3,2976,0
VAAM,4/1/13,60.08194446,2.852610708,0,63.4,2880,4
VAAM,5/1/13,57.60328993,1.994109226,52.8,59.1,2918,0
VAAM,6/1/13,52.95777779,18.4676677,0,60.6,2880,308
VAAM,7/1/13,58.07459684,1.149146527,55,59.8,2976,0
VAAM,8/1/13,57.20268807,0.628974844,53.4,58.7,2976,0
VAAM,9/1/13,54.96971628,1.23230012,51.6,56.3,2678,0
VAAM,10/1/13,56.44341404,0.696659785,54.9,57.8,2976,0
VAAM,11/1/13,58.10902779,2.241665939,54.2,61.1,2880,0
VAAM,12/1/13,60.75147848,0.090253761,60.4,61,2976,0
VAAM,1/1/14,60.81653252,0.096226074,60.4,61.3,2976,0
VAAM,2/1/14,32.11770838,30.35580595,0,61.1,2688,1268
VAAM,3/1/14,0,0,0,0,2976,2976
VAAM,4/1/14,0,0,0,0,2880,2880
VAAM,5/1/14,0.084408601,2.301198531,0,62.8,2976,2972
VAAM,6/1/14,0,0,0,0,2880,2880
VAAM,7/1/14,0,0,0,0,2976,2976
VAAM,8/1/14,0,0,0,0,2976,2976
VAAM,9/1/14,3.304305553,14.00104479,0,63.3,2880,2728
VAAM,10/1/14,8.411155921,21.23965525,0,63.2,2976,2572
VAAM,11/1/14,0.869166666,7.325041663,0,62.9,2880,2840
VAAM,12/1/14,37.40221859,29.04677302,0,60.2,2975,2975
VAAM,1/1/15,59.97688179,0.093932172,59.6,60.3,2976,2976
VAAM,2/1/15,60.11815443,0.119908819,59.7,60.5,2688,2688
VAAM,3/1/15,60.19946198,0.129016474,60,60.7,2976,2976
VAAM,4/1/15,58.81930554,0.610207989,55,60.9,2880,2880
VAAM,5/1/15,58.96774229,0.135352593,58.7,59.3,2976,2976
VAAM,6/1/15,59.47874996,1.428623918,52.8,60.7,2880,2880
VAAM,7/1/15,52.27069894,3.090609511,47.7,57.5,2976,2976
VAAM,8/1/15,53.08306462,1.783693225,51.1,57.8,2976,2976
VAAM,9/1/15,58.27416658,0.32064436,57.4,59.4,2880,2880
VAAM,10/1/15,59.82096768,0.608812516,58.1,60.9,2976,2976
VAAM,11/1/15,60.11293463,0.104184891,59.8,60.6,2242,2242
VAAM,12/1/15,60.19917748,1.58149634,0,60.7,2918,2918
VAAM,1/1/16,60.23855253,0.115877712,60,60.9,1354,1354
VAAM,2/1/16,59.97566039,0.647456109,58.1,60.8,2309,2309
VAAM,3/1/16,55.29946249,1.306541846,49.4,58.3,2976,2976
VAAM,4/1/16,59.80801696,1.081217839,56.9,60.6,1185,1185
VAAM,5/1/16,59.88156322,1.48782985,52.7,61,2213,2213
VAAM,6/1/16,54.70374983,0.535583192,51.9,55.8,2880,2880
VAAM,7/1/16,55.53436315,0.294693774,53.5,56.1,2817,2817
VAAM,8/1/16,56.59058759,0.410057528,55.2,58.2,2943,2943
VAAM,9/1/16,52.7398612,1.535168814,49.5,56.4,2880,2880
VAAM,10/1/16,53.1009409,0.687139371,48.2,54,2976,2976
VAAM,11/1/16,59.01958369,2.318439934,53.8,60.7,2880,2880
VAAM,12/1/16,60.63227538,0.255036736,59.9,61.2,2962,2967
VAAM,1/1/17,60.84112926,0.127029416,60.3,61.2,2976,2976
VAAM,2/1/17,60.64806522,0.15218298,60.2,61.1,2688,2688
VAAM,3/1/17,60.6438171,0.232173504,60.2,61.4,2976,2976
VAAM,4/1/17,60.73694433,0.155560771,60.5,62.2,2880,2880
VAAM,5/1/17,60.77110215,0.151402685,60.5,61.6,2976,2976
VAAM,6/1/17,60.82444447,0.164386918,60.5,61.5,2880,2880
VAAM,7/1/17,60.79650545,0.154053143,60.4,61.4,2976,2976
VAAM,8/1/17,60.84677416,0.416777988,56.2,62.9,2976,2976
VAAM,9/1/17,60.93486125,0.274504073,59.6,63.1,2880,2880
VAAM,10/1/17,60.83064535,0.200440972,60.1,61.4,2976,2976
VAAM,11/1/17,60.89708344,0.168452712,60.2,61.7,2880,2880
VAAM,12/1/17,60.79665661,0.143339884,60.1,61.2,2961,2963
VAAM,1/1/18,60.71303751,0.171375246,59.8,61,2976,2976
VAAM,2/1/18,60.79032751,0.179927455,60.2,61.4,2688,2688
VAAM,3/1/18,60.61975813,0.508799481,59.2,62.4,2976,2976
VAAM,4/1/18,60.97791666,0.186813839,60.3,61.8,2880,2880
VAAM,5/1/18,60.994086,0.285948659,60.3,61.8,2976,2976
VAAM,6/1/18,60.3022221,1.04645593,57.5,61.5,2880,2880
VAAM,7/1/18,60.1055109,1.680875117,53.5,61.4,2976,2976
VAAM,8/1/18,60.90456984,0.262744389,60.3,61.7,2976,2976
VAAM,9/1/18,60.93847219,0.260611692,60.4,64.1,2880,2880
VAAM,10/1/18,60.49072591,0.157313382,59.8,61.1,2976,2976
VAAM,11/1/18,60.51166663,0.215101912,59.7,61.3,2880,2880
VAAM,12/1/18,59.93110052,0.489886509,59,61,2971,2066
VAAM,1/1/19,59.27177406,0.08972258,58.9,59.5,2976,0
VAAM,2/1/19,59.32708359,0.090049409,59,59.7,2688,0
VAAM,3/1/19,59.43010821,0.092948422,59.2,59.8,2976,0
VAAM,4/1/19,59.66680547,0.21476132,59,60.5,2880,0
VAAM,5/1/19,59.68736567,0.243617461,58.9,60.8,2976,0
VAAM,6/1/19,59.59319453,0.207456039,58.6,60.7,2880,0
VAAM,7/1/19,59.8131719,0.223857478,59.1,61,2976,0
VAAM,8/1/19,60.04905901,0.460499284,59.3,61.3,2976,0
VAAM,9/1/19,60.11208331,0.325685996,59.5,61,2880,0
VAAM,10/1/19,59.83655918,0.150139873,59.4,60.4,2976,0
VAAM,11/1/19,59.63486101,0.141617697,59.2,60.3,2880,0
VAAM,12/1/19,59.52040379,0.157214854,58.9,60,2970,529
VAAM,1/1/20,59.39489286,0.114792338,58.9,59.7,2976,2976
VAAM,2/1/20,59.45747132,0.200828686,56.5,60.4,2784,2784
VAAM,3/1/20,59.57795655,0.293477546,57.8,60.3,2976,2976
VAAM,4/1/20,59.64749958,0.112043502,59.3,60.3,2880,2880
VAAM,5/1/20,59.65913936,0.129214314,59.4,60.3,2976,2976
VAAM,6/1/20,59.69333308,0.152177991,59.4,60.3,2880,2880
VAAM,7/1/20,59.6154566,0.116718438,59.4,60.1,2976,2976
VAAM,8/1/20,59.57110178,0.164019713,58.9,60.2,2976,2976
VAAM,9/1/20,59.65791628,0.153119255,59.3,60.2,2880,2880
VAAM,10/1/20,59.59516083,0.105273215,59.3,60.2,2976,2976
VAAM,11/1/20,59.49152758,0.108404893,59.1,59.8,2880,2880
VAAM,12/1/20,59.43212394,0.105270893,59,59.6,2976,2976
VAAM,1/1/21,59.45981202,0.09238816,58.9,59.8,2976,2976
VAAM,2/1/21,59.49583326,0.159867295,58.8,60.2,2688,2688
VAAM,3/1/21,58.37567179,2.101104644,53.6,61,2976,2976
VAAM,4/1/21,59.75041659,0.308048514,58.7,60.5,2880,2880
VAAM,5/1/21,59.85403212,0.269073603,59.1,60.6,2976,2976
VAAM,6/1/21,59.67541638,0.153662822,59.2,60.4,2880,2880
VAAM,7/1/21,59.61626301,0.113926066,59.4,60.1,2976,2976
VAAM,8/1/21,59.77177415,0.221491638,59.4,60.5,2976,2976
VAAM,9/1/21,59.55763865,0.324046025,58.4,60.4,2880,2880
VAAM,10/1/21,59.64422018,0.158119952,58.4,60.1,2976,2976
VAAM,11/1/21,59.5849997,0.104885775,59.2,59.8,2880,2880
VAAM,12/1/21,61.23373646,1.180060279,59.3,62.8,2976,2976
VAAM,1/1/22,62.39285971,0.613893712,59.2,63.8,2829,2972
VAAM,2/1/22,62.81737802,0.362678954,61.7,63.9,1312,2688
VAAM,3/1/22,63.41081104,0.376003768,62.2,64.1,148,2976
VAAM,4/1/22,,,,,0,2880
VAAM,5/1/22,,,,,0,2976
VAAM,6/1/22,,,,,0,2880
VAAM,7/1/22,,,,,0,2976
VAAM,8/1/22,,,,,0,2976
VAAM,9/1/22,,,,,0,2880
VAAM,10/1/22,,,,,0,2976
VAAM,11/1/22,,,,,0,2880
VAAM,12/1/22,,,,,0,1196